Total_Precipitation_Accumulation
0.00 0.00 0.00 0.00 0.00 0.00 0.00 0.00 0.00 0.00 0.00 0.00 0.00 0.00 0.00 0.00 0.00 0.00 0.00 0.00 0.00 0.00 0.01 0.02 0.03 0.04 0.06 0.09 0.12 0.13 0.13 0.13 0.13 0.14 0.14 0.15 0.15 0.16 0.17 0.17 0.18 0.19 0.20
0.01 0.00 0.00 0.00 0.00 0.00 0.00 0.00 0.00 0.00 0.00 0.00 0.00 0.00 0.00 0.00 0.00 0.00 0.00 0.00 0.00 0.00 0.00 0.01 0.02 0.04 0.06 0.09 0.12 0.14 0.14 0.14 0.14 0.15 0.16 0.17 0.17 0.18 0.19 0.20 0.21 0.22 0.23
0.01 0.00 0.00 0.00 0.00 0.00 0.00 0.00 0.00 0.00 0.00 0.00 0.00 0.00 0.00 0.00 0.00 0.00 0.00 0.00 0.00 0.00 0.00 0.01 0.02 0.03 0.04 0.06 0.09 0.12 0.14 0.16 0.16 0.17 0.18 0.19 0.21 0.22 0.24 0.25 0.26 0.28 0.29
0.01 0.01 0.01 0.00 0.00 0.00 0.00 0.00 0.00 0.00 0.00 0.00 0.00 0.00 0.00 0.00 0.00 0.00 0.00 0.00 0.00 0.00 0.00 0.00 0.01 0.02 0.03 0.05 0.07 0.11 0.14 0.16 0.17 0.17 0.18 0.19 0.20 0.22 0.26 0.30 0.33 0.36 0.39
0.03 0.02 0.02 0.01 0.01 0.01 0.00 0.00 0.00 0.00 0.00 0.00 0.00 0.00 0.00 0.00 0.00 0.00 0.00 0.00 0.00 0.00 0.00 0.00 0.01 0.02 0.02 0.03 0.05 0.09 0.15 0.19 0.19 0.17 0.18 0.19 0.20 0.22 0.26 0.30 0.35 0.41 0.48
0.08 0.05 0.04 0.03 0.03 0.02 0.01 0.01 0.01 0.01 0.01 0.01 0.01 0.01 0.00 0.00 0.00 0.00 0.00 0.00 0.00 0.00 0.00 0.00 0.01 0.01 0.01 0.03 0.05 0.08 0.13 0.18 0.20 0.19 0.19 0.21 0.22 0.24 0.26 0.30 0.36 0.44 0.55
0.16 0.10 0.07 0.05 0.04 0.03 0.02 0.02 0.02 0.02 0.01 0.01 0.02 0.01 0.00 0.00 0.00 0.00 0.00 0.00 0.01 0.00 0.00 0.01 0.01 0.01 0.02 0.03 0.04 0.06 0.09 0.14 0.20 0.24 0.25 0.26 0.26 0.29 0.32 0.37 0.44 0.51 0.60
0.25 0.20 0.14 0.10 0.08 0.06 0.05 0.05 0.06 0.04 0.03 0.03 0.05 0.06 0.03 0.01 0.00 0.01 0.01 0.01 0.01 0.01 0.01 0.01 0.02 0.02 0.02 0.03 0.03 0.03 0.05 0.08 0.15 0.27 0.35 0.37 0.38 0.39 0.43 0.50 0.59 0.66 0.72
0.40 0.33 0.28 0.22 0.18 0.14 0.11 0.11 0.11 0.10 0.10 0.08 0.08 0.12 0.12 0.06 0.04 0.02 0.02 0.02 0.03 0.03 0.03 0.03 0.03 0.03 0.03 0.03 0.04 0.05 0.06 0.08 0.11 0.21 0.37 0.49 0.54 0.60 0.66 0.73 0.80 0.87 0.91
0.49 0.46 0.42 0.36 0.30 0.26 0.22 0.22 0.22 0.20 0.19 0.17 0.15 0.15 0.17 0.18 0.19 0.13 0.06 0.05 0.05 0.05 0.05 0.05 0.05 0.05 0.06 0.07 0.08 0.10 0.13 0.15 0.18 0.23 0.36 0.52 0.67 0.82 0.98 1.09 1.16 1.20 1.17
0.50 0.51 0.47 0.44 0.38 0.36 0.36 0.38 0.36 0.35 0.34 0.32 0.31 0.29 0.29 0.28 0.29 0.31 0.20 0.10 0.09 0.09 0.10 0.10 0.10 0.11 0.12 0.13 0.14 0.16 0.21 0.25 0.29 0.33 0.44 0.62 0.83 1.06 1.27 1.42 1.48 1.45 1.38
0.49 0.48 0.48 0.46 0.46 0.44 0.44 0.46 0.50 0.49 0.48 0.47 0.45 0.44 0.46 0.44 0.40 0.45 0.42 0.28 0.24 0.21 0.20 0.21 0.21 0.20 0.20 0.20 0.21 0.24 0.25 0.28 0.34 0.41 0.56 0.77 0.94 1.08 1.21 1.38 1.49 1.53 1.51
0.40 0.42 0.48 0.49 0.50 0.50 0.53 0.56 0.55 0.53 0.53 0.51 0.51 0.52 0.53 0.52 0.52 0.56 0.60 0.51 0.42 0.32 0.28 0.27 0.28 0.29 0.29 0.31 0.31 0.36 0.35 0.37 0.41 0.44 0.54 0.76 0.88 0.90 0.92 1.01 1.21 1.36 1.45
0.38 0.46 0.48 0.49 0.48 0.47 0.49 0.51 0.50 0.49 0.52 0.54 0.55 0.58 0.57 0.54 0.57 0.61 0.67 0.72 0.65 0.48 0.37 0.33 0.34 0.38 0.40 0.41 0.42 0.46 0.40 0.42 0.41 0.43 0.48 0.57 0.62 0.61 0.62 0.69 0.83 0.99 1.13
0.33 0.36 0.38 0.41 0.43 0.42 0.43 0.45 0.44 0.43 0.46 0.48 0.51 0.55 0.56 0.53 0.55 0.60 0.67 0.78 0.89 0.80 0.58 0.45 0.43 0.44 0.47 0.47 0.48 0.45 0.38 0.39 0.39 0.38 0.37 0.38 0.39 0.43 0.46 0.51 0.60 0.71 0.81
0.24 0.26 0.27 0.29 0.31 0.32 0.34 0.36 0.37 0.38 0.41 0.40 0.42 0.45 0.47 0.48 0.52 0.58 0.66 0.73 0.84 0.91 0.77 0.51 0.43 0.41 0.43 0.41 0.41 0.37 0.31 0.35 0.33 0.31 0.31 0.33 0.35 0.36 0.38 0.42 0.47 0.53 0.61
0.17 0.17 0.18 0.19 0.19 0.20 0.22 0.24 0.26 0.28 0.31 0.34 0.37 0.42 0.46 0.48 0.52 0.54 0.57 0.62 0.68 0.76 0.76 0.54 0.44 0.43 0.41 0.35 0.32 0.30 0.26 0.25 0.22 0.25 0.27 0.29 0.31 0.34 0.36 0.38 0.41 0.45 0.50
0.12 0.12 0.13 0.12 0.12 0.13 0.14 0.15 0.17 0.21 0.25 0.29 0.33 0.38 0.42 0.46 0.50 0.52 0.53 0.55 0.56 0.58 0.66 0.58 0.41 0.37 0.33 0.32 0.33 0.32 0.27 0.24 0.20 0.21 0.25 0.28 0.31 0.33 0.35 0.37 0.41 0.46 0.50
0.08 0.08 0.09 0.10 0.10 0.10 0.11 0.13 0.15 0.18 0.21 0.24 0.27 0.31 0.35 0.39 0.40 0.39 0.39 0.40 0.42 0.46 0.53 0.55 0.43 0.36 0.32 0.29 0.30 0.28 0.25 0.22 0.19 0.21 0.25 0.28 0.30 0.32 0.35 0.39 0.43 0.46 0.49
0.07 0.07 0.06 0.07 0.08 0.10 0.12 0.14 0.17 0.20 0.22 0.23 0.25 0.27 0.28 0.28 0.28 0.27 0.28 0.31 0.37 0.43 0.45 0.50 0.47 0.38 0.34 0.29 0.29 0.24 0.21 0.19 0.20 0.20 0.24 0.29 0.32 0.36 0.38 0.41 0.44 0.46 0.48
0.09 0.10 0.11 0.11 0.12 0.12 0.15 0.18 0.19 0.21 0.23 0.23 0.23 0.21 0.20 0.21 0.21 0.22 0.25 0.30 0.37 0.45 0.52 0.58 0.55 0.47 0.39 0.32 0.27 0.27 0.32 0.31 0.29 0.25 0.26 0.29 0.34 0.38 0.41 0.44 0.47 0.47 0.49
0.11 0.12 0.15 0.18 0.19 0.20 0.26 0.24 0.21 0.22 0.23 0.22 0.21 0.19 0.19 0.20 0.18 0.19 0.22 0.31 0.44 0.56 0.67 0.71 0.68 0.58 0.43 0.36 0.36 0.42 0.50 0.58 0.51 0.31 0.33 0.36 0.37 0.44 0.44 0.46 0.52 0.55 0.56
0.21 0.21 0.22 0.23 0.26 0.31 0.32 0.25 0.21 0.18 0.18 0.17 0.16 0.15 0.14 0.13 0.14 0.13 0.16 0.27 0.36 0.46 0.53 0.56 0.54 0.43 0.39 0.38 0.51 0.67 0.69 0.73 0.59 0.38 0.44 0.49 0.41 0.43 0.44 0.48 0.57 0.57 0.55
0.30 0.30 0.29 0.27 0.25 0.26 0.25 0.19 0.16 0.14 0.14 0.13 0.11 0.10 0.10 0.10 0.10 0.14 0.21 0.29 0.24 0.20 0.25 0.30 0.33 0.35 0.38 0.45 0.62 0.86 0.93 0.91 0.72 0.54 0.51 0.55 0.42 0.39 0.40 0.44 0.51 0.51 0.47
0.34 0.31 0.28 0.27 0.25 0.24 0.20 0.15 0.12 0.10 0.10 0.09 0.07 0.07 0.08 0.07 0.10 0.22 0.33 0.35 0.24 0.14 0.16 0.24 0.33 0.36 0.38 0.40 0.48 0.75 0.94 1.01 0.85 0.55 0.47 0.55 0.51 0.47 0.46 0.42 0.44 0.48 0.46
0.31 0.28 0.25 0.21 0.19 0.18 0.16 0.12 0.09 0.08 0.08 0.07 0.07 0.06 0.07 0.09 0.16 0.28 0.32 0.33 0.27 0.18 0.22 0.25 0.26 0.27 0.27 0.30 0.39 0.58 1.01 1.41 1.19 0.82 0.50 0.61 0.63 0.66 0.77 0.48 0.42 0.45 0.45